DECAYED

CZ-6A DEB, 61819 (Decayed)

Orbit data source: Space-Track

CZ-6A DEB, 61819 was space debris in LEO originally from a launch on Tue, 06 Aug 2024 UTC launched from the Taiyaun Space Center, China (TSC). Debris objects in space refer to the collection of defunct objects orbiting the Earth. Examples of debris include non-operational satellites, rocket bodies, and fragments generated from explosions, collisions, or faulty payload assembly.

Loading next visibility...
Identifier
61819, 2024-140ACK
Orbit
Decayed
Country
Flag of CNCN / PRC
Related business
Manufacturer
SAST
Mission
Decayed spacecraft
Bus & Motor
Unknown
Mass
Unknown
Launch date (UTC)
2024-08-06 (2 years ago)
Launch vehicle
Unknown
Launch site
Taiyaun Space Center, China (TSC)
Object type
Payload
Rocket body
Debris
Shape & HBR
Unknown shape, 0.1 m
Radar Cross Section
Medium (>0.1 m² and <1 m²)

Expand to show TLE details & history
Last TLE update: 9 months ago

TLE from 9 months ago
0 CZ-6A DEB
1 61819U 24140ACK 25275.24496803  .06146558  00000-0  32689-1 0  9997
2 61819  88.9540 297.1861 0005542 317.4144  42.6701 15.76042747 56571
Epoch: 2025-10-02T05:52Z
TLE epoch observation values (Epoch: 2025-10-02T05:52:45.237Z)
Latitude
-0.00009°
Longitude
-162.21079°
Altitude
342.2 km
Speed
7.705 km/s
True Right ascension
19h 48m 44s
True Declination
0° 00' 00"
Sunlit
Object was in partial shadow at epoch
Visualization orbit readout
Latitude
Unknown
Longitude
Unknown
Altitude
Unknown
Speed
Unknown
Apparent Right ascension
Unknown
Apparent Declination
Unknown
Sunlit
N/A
Visualization observer readout
Local Sidereal Time
07:20:36
Azimuth
Unknown
Elevation
Unknown
Doppler factor
Unknown
Orbital elements
Apogee altitude
342.119 km
Perigee altitude
334.675 km
Semi-major axis
6,716.534 km
Eccentricity
0.00055
Inclination
88.954°
RAAN
297.1861°
Arg. of periapsis
317.4144°
True anomaly
42.71317°
Mean anomaly
42.6701°
Eccentric anomaly
42.69163°
Mean motion
3.94299 °/min
Orbital period
91.3 mins
BSTAR
0.032689
Loading maneuver chart data...
Computing Atmospheric mass density...
Loading historical data...
Loading historical data...
Loading historical data...
Loading historical data...
Loading historical data...
Loading historical data...
Loading historical data...

Documentation

Showing up to 5 results
|